Location: Balaclava NSW 2575, Australia
(34.4510°S, 150.4953°E)
Time: 20:27:49
(UTC+10:00)

Hubble Space Telescope - Pass Details

Date: 24 May 2021
Orbit: 535 x 539 km, 28.5° (Epoch: 17 June)

Event Time Altitude Azimuth Distance (km) Brightness Sun altitude
Rises 18:28:14 0° 278° (W) 2,689 6.0 -18.2°
Reaches altitude 10° 18:30:47 10° 290° (WNW) 1,797 4.7 -18.7°
Maximum altitude 18:34:14 25° 347° (NNW) 1,100 2.6 -19.4°
Enters shadow 18:36:22 17° 29° (NNE) 1,408 2.7 -19.9°
